Regional Weather Roundup
Issued by NWS

Home | Current Version | Previous Version | Text Only | Print | Product List | Glossary Off
Versions: 1 2 3 4 5 6 7 8 9 10 11 12 13 14 15 16 17 18 19 20 21 22 23 24 25 26 27 28 29 30 31 32 33 34 35 36 37 38 39 40 41 42 43 44 45 46 47 48 49 50

000
ASUS43 KMPX 241710
RWRMN
WEATHER ROUNDUP FOR MINNESOTA
NATIONAL WEATHER SERVICE TWIN CITIES/CHANHASSEN MN
1200 PM CDT MON APR 24 2017


NOTE: "FAIR" INDICATES FEW OR NO CLOUDS BELOW 12,000 FEET WITH NO
SIGNIFICANT WEATHER AND/OR OBSTRUCTIONS TO VISIBILITY. N/A MEANS
CURRENT SKY AND/OR WEATHER CONDITIONS ARE NOT AVAILABLE.

MNZ060>063-068>070-241800-
   Twin Cities Metro

CITY           SKY/WX    TMP DP  RH WIND       PRES   REMARKS
TWIN CITIES    CLOUDY    64  33  31 S18G28    29.73F
ST PAUL        CLOUDY    65  35  33 S20G26    29.74F
CRYSTAL        CLOUDY    63  34  33 S17G25    29.71F
BLAINE         CLOUDY    66  34  30 S21G29    29.72F
LAKEVILLE      CLOUDY    63  36  36 S15G25    29.73F
EDEN PRAIRIE   CLOUDY    66  31  27 S22G33    29.70F
SOUTH ST PAUL  CLOUDY    65  33  30 S18G26    29.74F
LAKE ELMO      FAIR      64  36  34 S21G28    29.75F
$$
MNZ001>005-007-008-013>017-022>024-027-028-241800-
   Northwest Minnesota

CITY           SKY/WX    TMP DP  RH WIND       PRES   REMARKS
BEMIDJI        CLOUDY    44  35  70 E12       29.65F
HALLOCK        SNOW      34  32  93 E12       29.73R VSB 1/4 WCI  25
ROSEAU         LGT RAIN  34  28  80 E16G31    29.72F WCI  23
WARROAD        LGT SNOW  34  28  80 E22       29.74F WCI  22
THIEF RVR FALL CLOUDY    36  31  82 E14       29.67R
CROOKSTON      MIX PCPN  37  37 100 E14       29.64F
FOSSTON        CLOUDY    46  34  61 SE9       29.62F
DETROIT LAKES  CLOUDY    50  37  62 SE10      29.58F
MOORHEAD       DRIZZLE   50  39  66 SE7       29.55F
PARK RAPIDS    CLOUDY    51  35  54 SE9       29.61F
MAHNOMEN       CLOUDY    46  36  69 E12G17    29.58F
$$
MNZ006-009>011-018-025>026-241800-
   North Central Minnesota

CITY           SKY/WX    TMP DP  RH WIND       PRES   REMARKS
BAUDETTE       CLOUDY    34  28  79 E22G28    29.74F WCI  22
FLAG ISLAND    LGT SNOW  30  30 100 E12G21    29.78S VSB 3/4 WCI  21
INTL FALLS     CLOUDY    34  26  72 E14G24    29.79F WCI  25
WASKISH        CLOUDY    36  28  75 E21G28    29.69F
BIG FORK       CLOUDY    41  32  70 E10       29.72F
LONGVILLE      CLOUDY    48  36  61 E8        29.67S
GRAND RAPIDS   CLOUDY    45  32  60 SE16G22   29.72F
CRANE LAKE     CLOUDY    36  27  69 E6        29.85F
ORR            CLOUDY    37  27  65 MISG      29.76F
COOK           CLOUDY    39  30  70 E6G18     29.79F
WALKER         PTSUNNY   44  36  73 E7        29.65F
$$
MNZ012-019>021-037-241800-
   Northeast Minnesota

CITY           SKY/WX    TMP DP  RH WIND       PRES   REMARKS
DULUTH         MOSUNNY   39  28  64 E22G31    29.81F
ELY            MOSUNNY   37  27  65 E18       29.84F
HIBBING        CLOUDY    42  32  67 E17G25    29.77F
EVELETH        MOSUNNY   40  27  59 SE13G20   29.81F
DULUTH HARBOR  MOSUNNY   39  34  81 NE24      29.85F
TWO HARBORS    CLOUDY    41  32  70 E23G30    29.85F
SILVER BAY     PTSUNNY   39  32  75 E18G31    29.88F
GRAND MARAIS     N/A     37  31  78 E24G37    29.97F
G MARAIS ARPRT CLOUDY    34  25  69 E16G23    29.93S WCI  23
$$
MNZ029>031-032-039>041-046>048-054>057-064-241800-
   West Central Minnesota

CITY           SKY/WX    TMP DP  RH WIND       PRES   REMARKS
FERGUS FALLS   MOSUNNY   61  41  48 S21G30    29.54F
WHEATON        MOSUNNY   63  36  36 S18G24    29.54F
MORRIS         CLOUDY    63  39  42 S25G33    29.55F
ALEXANDRIA     CLOUDY    61  37  41 S21G31    29.60F
ELBOW LAKE     FAIR      63  39  41 S28       29.56F
WADENA         CLOUDY    57  39  51 SE13      29.58F
GLENWOOD       CLOUDY    61  37  41 S23G35    29.61F
APPLETON       CLOUDY    63  36  36 S20G26    29.57F
BENSON         CLOUDY    64  28  25 SW26      29.60F
ORTONVILLE     CLOUDY    57  39  51 S16       29.55F
MADISON        CLOUDY    64  37  36 S28       29.56F
WILLMAR        FAIR      64  37  36 S13G18    29.64F
$$
MNZ033>034-036-042>043-049>051-058-059-241800-
   Central Minnesota

CITY           SKY/WX    TMP DP  RH WIND       PRES   REMARKS
ST CLOUD       CLOUDY    62  33  33 S25G32    29.67F
SAUK CENTRE    CLOUDY    59  38  46 S24       29.63S
PAYNESVILLE    CLOUDY    61  32  34 S15G23    29.65F
AITKIN         CLOUDY    57  34  41 E13       29.67F
PINE RIVER     CLOUDY    54  39  58 SE13      29.69F
BRAINERD       CLOUDY    57  38  48 SE13G18   29.66F
STAPLES        CLOUDY    57  37  47 SE13      29.61F
LONG PRAIRIE   PTSUNNY   59  37  44 SE20      29.63F
LITTLE FALLS   CLOUDY    59  34  38 S16G23    29.65F
LITCHFIELD     CLOUDY    63  36  36 S14G21    29.66F
BUFFALO        PTSUNNY   64  32  30 S18G26    29.70F
MAPLE LAKE     CLOUDY    64  36  35 S13G25    29.69F
HUTCHINSON     CLOUDY    61  37  39 S13G23    29.68F
$$
MNZ037-044-045-052-053-241800-
   East Central Minnesota

CITY           SKY/WX    TMP DP  RH WIND       PRES   REMARKS
PRINCETON      CLOUDY    66  34  30 S21G30    29.69F
MORA           MOSUNNY   61  36  39 S13G20    29.72F
CAMBRIDGE      CLOUDY    66  43  42 S16G28    29.70F
RUSH CITY      CLOUDY    63  38  40 S10G16    29.73F
MOOSE LAKE     CLOUDY    46  32  57 E10G16    29.74F
HINCKLEY       FAIR      61  37  41 SE12G17   29.73F
CLOQUET        PTSUNNY   43  28  56 E14G21    29.79F
MCGREGOR       MOSUNNY   46  34  61 E15       29.73F
$$
MNZ071>073-080-081-089-090-097-098-241800-
   Southwest Minnesota

CITY           SKY/WX    TMP DP  RH WIND       PRES   REMARKS
MONTEVIDEO     CLOUDY    63  37  39 SW21G31   29.59F
GRANITE FALLS  CLOUDY    63  40  42 S24       29.62F
CANBY          CLOUDY    60  37  41 SW16G24   29.58F
MARSHALL       CLOUDY    62  38  40 S24G30    29.58F
REDWOOD FALLS  CLOUDY    65  31  28 S23G36    29.63F
OLIVIA         CLOUDY    61  34  36 S15G25    29.64S
PIPESTONE      CLOUDY    59  34  38 S26G33    29.59F
WINDOM         CLOUDY    63  28  27 S24G44    29.63S
WORTHINGTON    CLOUDY    61  31  32 S32G39    29.61F
JACKSON        CLOUDY    63  30  29 S29G36    29.66F
TRACY          CLOUDY    64  36  36 S24G32    29.60F
SLAYTON        CLOUDY    61  34  36 S22G37    29.61F
$$
MNZ065>067-074>077-082>085-091>093-241800-
   South Central Minnesota

CITY           SKY/WX    TMP DP  RH WIND       PRES   REMARKS
MANKATO        CLOUDY    65  31  28 S25G37    29.68F
NEW ULM        CLOUDY    64  32  29 S28G39    29.65S
ST JAMES       CLOUDY    64  34  32 S28G38    29.66F
FAIRMONT       CLOUDY    65  34  31 S30G41    29.65F
GLENCOE        CLOUDY    64  37  37 S20G28    29.68F
FARIBAULT      CLOUDY    64  34  32 S16G32    29.74F
OWATONNA       PTSUNNY   64  30  27 S23G38    29.74F
WASECA         CLOUDY    63  32  31 S29G36    29.73F
ALBERT LEA     PTSUNNY   64  27  24 S18G31    29.74F
$$
MNZ078>079-086>088-094>096-241800-
   Southeast Minnesota

CITY           SKY/WX    TMP DP  RH WIND       PRES   REMARKS
ROCHESTER      CLOUDY    65  32  29 S22G37    29.80F
RED WING       PTSUNNY   68  25  19 S23       29.76F
STANTON        CLOUDY    67  32  27 S18G33    29.74F
DODGE CENTER   CLOUDY    63  34  34 S28G36    29.77F
WINONA         CLOUDY    66  32  28 S10G18    29.82F
AUSTIN         MOSUNNY   64  30  27 S23G33    29.77F
PRESTON        CLOUDY    65  31  28 S26G35    29.82F
$$
ABBREVIATIONS USED IN REMARKS
   TC - TEMPERATURES IN CELSIUS
  WCI - WIND CHILL INDEX
   HX - HEAT INDEX
  VSB - VISIBILITY
$$




USA.gov is the U.S. government's official web portal to all federal, state and local government web resources and services.